Regional Weather Roundup
Issued by NWS

Home | Current Version | Previous Version | Text Only | Print | Product List | Glossary Off
Versions: 1 2 3 4 5 6 7 8 9 10 11 12 13 14 15 16 17 18 19 20 21 22 23 24 25 26 27 28 29 30 31 32 33 34 35 36 37 38 39 40 41 42 43 44 45 46 47 48 49 50

951
ASUS45 KTFX 201210
RWRMT
MONTANA REGIONAL WEATHER ROUNDUP
NATIONAL WEATHER SERVICE GREAT FALLS MT
500 AM MST FRI JAN 20 2017

NOTE: "FAIR" INDICATES FEW OR NO CLOUDS BELOW 12000 FEET WITH NO
SIGNIFICANT WEATHER AND/OR OBSTRUCTIONS TO VISIBILITY.

MTZ001>007-043-201300-
WEST OF THE DIVIDE

CITY           SKY/WX    TMP DP  RH WIND       PRES   REMARKS
KALISPELL      CLOUDY    26  24  92 CALM      29.50F
MISSOULA       FOG       32  32 100 CALM      29.54F VSB 1/4
BUTTE          CLOUDY    21  18  88 SE5       29.50F
MULLAN PASS    CLOUDY    26  22  84 S7        29.42F FOG     WCI  18
ANACONDA         N/A     28  27  93 CALM      29.51S
DEER LODGE       N/A     30  30 100 CALM      29.54S
EUREKA           N/A     37  28  70 SE10      29.49F WCI  30
HAMILTON         N/A     27  25  93 CALM        N/A  VSB 1/4
PLAINS           N/A     29  24  81 CALM      29.57F VSB 0
RONAN            N/A     20  16  84 CALM      29.57F
$$

MTZ008-052>055-201300-
SOUTHWEST MONTANA

CITY           SKY/WX    TMP DP  RH WIND       PRES   REMARKS
BOZEMAN        CLOUDY    28  26  92 CALM      29.52S
DILLON         CLOUDY    28  15  58 S8        29.51F WCI  20
W YELLOWSTONE  CLOUDY    25  21  86 S6        29.55S WCI  18
ENNIS          CLOUDY    30  23  74 S14       29.57S WCI  20
TWIN BRIDGES     N/A     15   6  67 E5        29.58S
$$

MTZ009-010-012-014-046-048-049-054-201300-
EAST SLOPES AND CENTRAL MONTANA

CITY           SKY/WX    TMP DP  RH WIND       PRES   REMARKS
CUT BANK       PTCLDY    31  21  66 W16       29.41S WCI  20
GREAT FALLS    CLOUDY    33  25  72 SW13      29.45S WCI  24
MALMSTROM AFB  CLOUDY    32  26  79 S8        29.46S WCI  25
HELENA         CLOUDY    27  24  89 W3        29.51S
CHOTEAU          N/A     28  21  74 SW6       29.44S WCI  22
CONRAD           N/A     25  20  81 SW1       29.50R
$$

MTZ011-013-016-021-045-047-050-051-201300-
NORTH CENTRAL MONTANA

CITY           SKY/WX    TMP DP  RH WIND       PRES   REMARKS
HAVRE          PTCLDY    32  29  88 SW7       29.44S WCI  26
LEWISTOWN      CLOUDY    34  29  82 SW3       29.45F
CHINOOK          N/A     30  27  86 CALM      29.44F
FORT BENTON      N/A     36  27  69 MISG      29.48R
$$

MTZ017>020-022>027-061-062-201300-
NORTHEAST MONTANA

CITY           SKY/WX    TMP DP  RH WIND       PRES   REMARKS
GLASGOW        CLOUDY    29  25  85 W7        29.42F WCI  22
JORDAN           N/A     35  32  88 NW5       29.44F
SIDNEY         PTCLDY    17  14  88 S7        29.42S WCI   8
WOLF POINT     CLOUDY    20  17  88 SW5       29.43F
PLENTYWOOD       N/A     25  23  93 W7        29.39S WCI  17
POPLAR           N/A     19  18  93 W8        29.43F WCI   9
SCOBEY           N/A     21  15  78 S1        29.42F
$$

MTZ028>42-056>058-201300-
SOUTHCENTRAL AND SOUTHEAST MONTANA

CITY           SKY/WX    TMP DP  RH WIND       PRES   REMARKS
BAKER          CLEAR     15  13  91 NW3       29.42F
BILLINGS       DRIZZLE   34  28  79 SW14      29.48S WCI  25
LIVINGSTON     CLOUDY    34  27  75 W10       29.49S WCI  26
MILES CITY     CLOUDY    17  14  88 S5        29.46S
BIG TIMBER     PTCLDY    36  25  64 W15       29.50S WCI  26
EKALAKA          N/A     26  19  74 W5        29.45F
FORSYTH          N/A     36  34  93 SW5       29.46F
LAUREL           N/A     33  23  67 SW3       29.52F
$$

REGIONAL REPORTS...DAKOTAS

CITY           SKY/WX    TMP DP  RH WIND       PRES   REMARKS
WILLISTON      CLOUDY    16  14  92 CALM      29.41R
MINOT          CLEAR     16  13  88 SE7       29.39S WCI   6
DICKINSON      CLOUDY    20  17  88 W9        29.35F WCI   9
BEACH            N/A     28  25  86 W13       29.42F WCI  18
CROSBY           N/A     16  16 100 S6        29.41R WCI   7
TIOGA            N/A     14  14 100 W6        29.39F WCI   5
WATFORD CITY     N/A     19  18  93 SW3       29.40S
BISMARCK       FOG       22  21  96 CALM      29.43S VSB 1/4
GRAND FORKS    FOG       35  33  92 SE10      29.52S VSB 3/4 WCI  27
FARGO          CLOUDY    50  36  58 SE9       29.52F
BUFFALO SD       N/A     29  23  78 NW22      29.31F WCI  15
RAPID CITY     CLOUDY    27  19  72 NW7       29.37S WCI  19
$$

REGIONAL REPORTS...WYOMING/IDAHO/WASHINGTON

CITY           SKY/WX    TMP DP  RH WIND       PRES   REMARKS
GILLETTE       CLOUDY    31  26  82 W12       29.45S WCI  22
SHERIDAN       CLOUDY    34  30  85 W17       29.48S WCI  23
BUFFALO WY     CLOUDY    33  26  75 NW8       29.46S WCI  26
CODY           CLOUDY    29  23  78 CALM      29.49S
YELLOWSTONE LA   N/A     19  18  95 CALM      29.55S
IDAHO FALLS    CLOUDY    28  28 100 CALM      29.60F FOG
SALMON         CLOUDY    23  21  93 W3        29.56F VSB<1/4
BOISE          CLOUDY    37  29  72 SE17      29.51F WCI  27
SPOKANE        FOG       29  28  96 N5        29.46F VSB 1
$$

REGIONAL REPORTS...ALBERTA

CITY           SKY/WX    TMP DP  RH WIND       PRES   REMARKS
EDMONTON       CLEAR     23  14  68 SE5       29.31R
CALGARY        PTCLDY    34  14  44 CALM      29.33F
LETHBRIDGE     CLEAR     36  23  60 W20G26    29.38S WCI  25
MEDICINE HAT   PTCLDY    32  27  80 SW9       29.38S WCI  24
WATERTON GATE    N/A     34  18  51 SW18G29     N/A  WCI  23
MILK RIVER       N/A     28  25  86 NW10        N/A  WCI  19
$$

REGIONAL REPORTS...SASKATCHEWAN

CITY           SKY/WX    TMP DP  RH WIND       PRES   REMARKS
SWIFT CURRENT  CLOUDY    37  27  65 W17       29.34R WCI  28
REGINA         CLEAR     16  16 100 E8        29.36F WCI   5
SASKATOON      CLOUDY    34  30  86 SW7       29.31S WCI  28
CYPRESS HILLS    N/A     34  18  51 W8          N/A  WCI  27
VAL MARIE        N/A     30  27  86 W7          N/A  WCI  23
ROCKGLEN         N/A     32  28  86 W10         N/A  WCI  24
ASSINIBOIA       N/A     14  14 100 S7          N/A  WCI   4
$$




USA.gov is the U.S. government's official web portal to all federal, state and local government web resources and services.